Simultaneous Nadir Overpasses (SNOs) Predictions

Prediction of SNOs between GOES-15 and METOP-A Satellite Orbit:

Table of predicted SNOs for the next 14.0 days since TLE Epoch: 2/24/2017
Index Date Time (GOES-15) GOES-15 Lat,Lon METOP-A Lat,Lon Distance(km) Time Diff (sec)
1 02/26/2017 06:40:16 -0.04,-135.23 -0.67,-137.93 308.76 80
2 02/27/2017 06:22:18 -0.04,-135.21 0.49,-132.95 257.92 80
3 02/28/2017 18:41:09 0.04,-135.16 0.54,-137.51 266.84 80
4 03/01/2017 18:17:50 0.04,-135.13 -0.56,-132.51 299.24 80
5 03/03/2017 06:36:50 -0.04,-135.10 -0.49,-137.10 228.85 80
6 03/04/2017 06:18:51 -0.03,-135.07 0.61,-132.11 336.85 80
7 03/05/2017 18:37:42 0.03,-135.01 0.42,-136.67 189.24 80
8 03/06/2017 18:14:22 0.03,-134.97 -0.69,-131.67 375.86 80
9 03/08/2017 06:33:24 -0.02,-134.92 -0.31,-136.28 153.75 80
10 03/09/2017 06:15:24 -0.02,-134.89 0.80,-131.28 411.35 80
11 03/10/2017 18:34:15 0.02,-134.83 0.23,-135.84 115.17 80




NCC Satellite Simultaneous Nadir Overpasses (SNOs) Prediction Service
